Location: Lansingburgh
(42.7845°N, 73.6696°W)
Time: 17:18:03
(UTC+00:00)

Cosmos 2251 Rocket - Pass Details

Date: 24 January 2020
Orbit: 764 x 792 km, 74.0° (Epoch: 21 February)

Event Time Altitude Azimuth Distance (km) Brightness Sun altitude
Rises 22:44:39 0° 347° (NNW) 3,261 6.7 -9.0°
Reaches altitude 10° 22:47:15 10° 357° (N) 2,335 5.9 -9.4°
Maximum altitude 22:52:05 34° 62° (ENE) 1,263 4.1 -10.3°
Drops below altitude 10° 22:56:54 10° 127° (SE) 2,338 5.7 -11.1°
Sets 22:59:29 0° 136° (SE) 3,266 6.5 -11.6°
